Temperature
11 11 12 12 12 13 13 12 12 11 11 11 12 12 11 11 10 10 9 8 7 6 5 5 4 4 3 3 2 2 1 0 -0 -0 -0 -1 -1 -1 -1 -2 -2 -3 -3
10 10 11 11 12 12 11 11 10 10 10 10 10 10 10 10 9 8 7 6 5 5 4 4 3 2 2 1 0 -0 -1 -1 -2 -2 -2 -2 -2 -2 -3 -3 -4 -4 -4
9 9 10 10 10 10 10 9 9 9 9 9 9 9 9 8 8 6 5 4 4 3 3 3 2 1 0 -0 -1 -1 -2 -2 -3 -3 -3 -4 -4 -4 -4 -5 -5 -5 -4
8 8 9 9 9 8 8 8 8 8 8 8 8 8 7 6 5 4 3 3 3 3 2 2 1 0 -0 -1 -2 -2 -3 -3 -4 -4 -5 -5 -5 -5 -6 -7 -6 -6 -5
7 7 8 8 8 7 7 7 7 7 7 7 7 6 5 3 3 3 3 3 2 2 2 1 0 -1 -1 -2 -2 -3 -4 -4 -5 -6 -6 -7 -7 -7 -7 -8 -8 -7 -6
6 6 6 6 6 6 6 6 6 5 5 5 4 3 2 2 2 2 2 2 2 1 1 -0 -1 -2 -2 -3 -3 -4 -5 -5 -6 -7 -7 -8 -8 -8 -8 -8 -8 -8 -8
4 4 4 4 4 4 4 4 3 3 2 2 1 1 1 1 1 1 1 1 1 0 -0 -1 -2 -2 -3 -3 -4 -4 -5 -5 -7 -8 -8 -8 -8 -8 -9 -9 -9 -9 -9
2 2 2 2 2 2 2 2 1 1 0 0 0 0 1 1 1 1 1 0 -0 -1 -2 -2 -3 -3 -4 -4 -5 -5 -6 -6 -7 -8 -8 -8 -9 -9 -9 -9 -9 -9 -8
1 1 1 1 1 1 0 0 0 -0 -0 -0 -0 0 0 0 0 -0 -0 -1 -2 -2 -3 -3 -4 -4 -4 -5 -7 -8 -8 -7 -8 -8 -8 -8 -8 -8 -8 -8 -8 -8 -8
-0 -0 -0 -0 -0 -0 -0 -0 -0 -0 -0 -0 -0 -0 -0 -1 -1 -1 -2 -2 -3 -3 -4 -4 -5 -5 -6 -7 -8 -9 -8 -8 -8 -7 -7 -7 -7 -7 -8 -8 -8 -9 -9
-0 -0 -0 -0 -0 -0 -0 -0 -0 -0 -0 -0 -0 -1 -1 -2 -2 -3 -3 -3 -4 -4 -5 -5 -6 -6 -8 -9 -9 -9 -9 -9 -9 -8 -8 -7 -7 -7 -7 -8 -8 -8 -9
-0 -0 -0 -0 -0 -0 -0 -0 -0 -0 -1 -1 -1 -2 -2 -3 -3 -4 -4 -5 -5 -6 -6 -6 -7 -8 -9 -9 -9 -9 -9 -9 -8 -8 -8 -7 -7 -7 -7 -7 -7 -8 -8
0 0 0 0 -0 -0 -1 -1 -1 -1 -1 -2 -2 -2 -3 -4 -4 -5 -5 -6 -6 -7 -7 -7 -8 -8 -8 -8 -8 -8 -8 -8 -8 -8 -8 -8 -8 -8 -7 -7 -7 -7 -7
1 0 -0 -0 -0 -1 -1 -1 -2 -2 -2 -2 -3 -3 -4 -4 -5 -5 -6 -6 -7 -7 -8 -8 -8 -8 -8 -8 -8 -8 -8 -9 -9 -9 -8 -8 -8 -8 -7 -7 -7 -7 -6
0 0 -0 -1 -1 -1 -1 -2 -2 -2 -3 -3 -4 -4 -4 -5 -6 -7 -8 -8 -8 -8 -8 -8 -8 -8 -8 -8 -8 -8 -8 -8 -8 -8 -8 -8 -8 -8 -7 -7 -7 -7 -7
0 -0 -1 -1 -1 -2 -2 -2 -3 -3 -3 -4 -4 -5 -5 -6 -7 -7 -8 -8 -8 -8 -8 -8 -8 -9 -9 -9 -9 -8 -8 -8 -8 -8 -8 -8 -8 -8 -8 -7 -7 -7 -7
-1 -1 -1 -2 -2 -2 -2 -3 -3 -4 -4 -5 -5 -6 -6 -7 -7 -7 -8 -8 -8 -8 -9 -9 -9 -9 -9 -9 -9 -9 -8 -8 -8 -8 -8 -8 -8 -8 -8 -7 -7 -7 -7
-1 -1 -1 -2 -2 -2 -3 -3 -4 -4 -5 -5 -6 -6 -7 -7 -8 -8 -8 -8 -9 -9 -9 -9 -9 -9 -9 -9 -9 -9 -8 -8 -8 -8 -8 -8 -8 -8 -8 -7 -7 -7 -7
-1 -1 -2 -2 -2 -3 -3 -4 -4 -4 -5 -6 -6 -7 -7 -8 -8 -9 -9 -9 -9 -9 -9 -9 -9 -9 -9 -9 -9 -9 -8 -8 -8 -8 -8 -8 -8 -8 -8 -7 -7 -7 -8
-1 -2 -2 -2 -3 -3 -4 -4 -5 -5 -6 -7 -7 -8 -8 -8 -9 -9 -9 -9 -9 -9 -9 -9 -9 -9 -9 -9 -9 -9 -8 -8 -8 -8 -8 -8 -8 -8 -8 -8 -8 -8 -8
-2 -2 -2 -3 -3 -4 -4 -5 -6 -6 -7 -8 -8 -9 -9 -9 -9 -9 -9 -9 -9 -9 -9 -9 -9 -9 -9 -9 -9 -8 -8 -8 -8 -8 -8 -8 -8 -8 -8 -8 -8 -8 -8
-2 -2 -3 -3 -4 -4 -5 -6 -7 -7 -8 -8 -9 -9 -10 -10 -10 -10 -10 -9 -9 -9 -9 -9 -9 -9 -9 -9 -9 -8 -8 -8 -8 -8 -8 -8 -8 -8 -8 -8 -8 -8 -8
-2 -3 -3 -4 -5 -5 -6 -7 -7 -8 -8 -9 -9 -9 -10 -10 -10 -10 -9 -9 -9 -9 -9 -9 -9 -8 -9 -9 -9 -9 -8 -8 -8 -8 -8 -8 -8 -8 -8 -8 -8 -8 -8
-3 -3 -4 -4 -5 -6 -6 -7 -8 -8 -9 -9 -9 -10 -10 -10 -10 -9 -9 -9 -9 -9 -9 -9 -9 -8 -8 -8 -8 -8 -8 -8 -8 -8 -8 -8 -8 -8 -8 -8 -8 -8 -8
-3 -4 -4 -5 -5 -6 -7 -7 -8 -9 -9 -9 -10 -10 -10 -10 -9 -9 -9 -9 -9 -8 -8 -8 -8 -8 -8 -8 -8 -8 -8 -8 -8 -8 -8 -8 -8 -8 -8 -8 -8 -8 -8
-4 -4 -5 -5 -6 -6 -7 -8 -8 -9 -9 -9 -9 -10 -9 -9 -9 -9 -9 -9 -8 -8 -8 -8 -8 -8 -8 -8 -8 -8 -8 -8 -8 -8 -8 -8 -8 -8 -8 -8 -8 -8 -8
Wind_Speed
8 7 7 6 5 5 6 7 8 8 10 12 13 13 13 12 12 11 11 12 12 11 9 9 7 5 3 3 2 2 2 3 5 4 3 3 4 6 11 14 15 16 16
7 7 6 4 3 4 5 6 8 10 11 12 13 13 13 13 13 14 14 13 12 11 9 8 6 4 3 2 2 2 3 4 5 6 3 3 6 7 7 8 13 15 16
6 5 3 1 3 4 6 7 9 11 11 12 13 13 13 13 14 14 14 13 12 10 9 7 5 4 3 2 2 3 3 4 5 5 5 4 5 5 6 7 9 11 16
6 4 2 1 4 6 8 9 10 12 13 13 13 14 14 14 14 14 14 14 12 10 8 7 5 3 3 3 3 5 5 5 5 5 6 6 6 6 5 6 9 6 9
6 6 5 6 8 9 11 11 12 13 14 14 15 15 14 13 13 14 13 13 11 10 7 5 3 2 2 3 4 5 5 5 5 5 6 6 6 5 6 6 11 9 9
8 8 9 10 11 12 13 14 14 14 14 15 15 15 14 12 19 19 14 11 9 8 6 4 2 1 1 3 6 7 7 6 5 4 5 7 8 7 8 9 10 12 8
10 10 11 12 13 13 14 15 15 14 14 14 14 15 15 17 20 19 16 10 8 6 5 4 2 1 2 3 6 9 9 12 12 8 8 8 9 9 10 11 11 12 13
10 10 11 12 13 13 14 14 13 12 12 13 13 13 13 15 18 18 15 9 7 6 4 3 1 2 3 6 6 5 6 7 10 8 8 10 10 10 10 11 11 10 10
10 10 10 11 12 12 12 12 11 12 11 11 11 11 12 12 15 14 12 6 6 4 3 2 1 3 8 10 6 5 6 7 11 16 17 17 20 21 18 9 7 8 12
9 9 9 10 11 11 11 11 10 10 10 10 10 9 9 7 10 11 10 5 4 2 1 1 4 6 10 11 5 4 6 7 7 8 9 13 13 15 17 7 5 8 8
8 9 10 10 10 10 10 10 10 10 10 10 10 8 7 7 7 7 8 4 3 2 1 1 3 9 10 11 10 4 9 10 4 5 7 8 8 7 6 6 6 7 10
8 9 10 9 9 9 10 9 9 9 9 8 8 7 5 5 7 7 6 4 3 2 1 3 5 10 11 11 9 11 15 11 4 6 7 8 8 8 9 8 10 11 13
9 10 9 10 9 8 8 8 7 7 6 5 5 5 4 4 5 6 6 5 5 1 2 6 8 10 10 7 10 13 9 4 5 6 8 8 7 8 9 9 9 9 12
9 8 8 8 8 8 6 6 6 5 5 5 4 4 3 2 2 2 2 2 4 4 3 4 6 8 8 9 8 7 5 5 6 7 8 9 9 8 8 8 9 11 11
8 7 7 7 7 7 6 5 5 3 4 4 3 3 2 1 2 3 2 2 2 3 1 1 3 4 5 5 5 5 5 5 6 7 8 9 10 10 10 8 7 8 9
7 6 5 5 5 5 5 5 8 6 8 7 4 2 0 1 4 6 7 8 8 9 4 3 3 4 5 6 7 7 7 6 6 7 8 8 9 10 11 10 8 10 11
7 6 5 5 4 4 4 4 3 5 8 8 7 6 4 5 6 7 8 8 8 7 3 3 4 5 5 6 6 6 7 7 7 7 8 8 9 9 10 11 10 10 12
7 6 5 4 4 4 3 3 2 2 2 3 5 7 7 7 7 7 8 6 4 4 2 4 4 5 6 6 6 7 8 8 7 7 8 8 8 9 10 11 11 12 13
6 5 4 4 4 4 3 3 3 3 2 2 3 4 7 7 6 6 6 2 3 4 4 4 5 5 6 6 6 7 7 8 8 8 9 9 8 9 10 11 12 17 16
5 7 6 4 4 3 3 3 2 2 2 2 3 3 4 3 2 3 3 3 4 4 5 5 6 6 6 6 7 7 8 8 9 8 9 9 9 9 11 13 13 13 13
5 5 6 4 3 3 2 1 1 1 1 2 3 5 7 2 3 4 4 4 4 5 5 6 6 7 6 6 6 7 9 9 9 9 9 9 10 11 11 12 13 14 13
5 4 4 3 2 2 1 1 0 1 2 3 3 4 7 3 4 4 5 5 5 5 5 6 7 7 7 7 7 8 9 10 10 9 9 10 10 12 12 12 13 13 13
5 5 4 3 2 1 1 0 1 2 3 4 4 4 4 4 5 5 6 6 6 6 6 6 7 8 8 10 10 9 10 11 10 10 11 12 12 12 12 13 14 15 14
5 5 4 3 2 1 1 2 2 3 3 4 4 4 5 5 6 7 6 6 6 6 8 8 8 10 13 13 13 13 14 16 15 13 14 14 14 13 13 13 14 14 14
5 4 4 3 3 2 2 3 3 4 4 4 5 5 5 6 6 7 6 7 8 8 9 10 11 12 14 16 17 17 20 23 23 19 15 13 14 14 14 14 14 14 15
5 4 4 3 3 3 3 3 4 4 4 5 5 5 6 6 7 7 7 7 7 8 8 10 12 15 17 18 19 21 22 24 25 25 19 12 13 13 14 13 15 14 15
Wind_Direction
291 284 270 256 238 214 205 197 178 161 155 157 155 151 149 146 143 137 132 128 120 112 107 107 100 99 103 105 107 132 164 175 235 265 261 273 280 282 293 296 297 293 291
294 288 273 253 212 186 176 160 152 151 150 148 145 143 141 139 136 133 127 121 117 114 108 108 110 117 124 141 164 194 207 207 224 261 269 272 267 273 275 282 295 297 294
311 306 295 221 162 150 139 133 135 136 135 135 135 135 133 130 127 123 119 114 110 110 112 114 119 127 146 176 202 224 234 236 223 245 267 257 265 273 280 281 283 286 292
342 347 348 125 125 121 119 119 122 125 125 123 122 121 121 120 118 116 113 110 108 106 105 105 114 138 179 210 226 232 237 245 243 250 265 267 265 267 268 284 296 285 291
22 35 47 80 96 103 105 107 109 111 113 114 114 112 112 112 115 114 111 111 110 106 101 99 103 121 227 229 235 232 228 238 248 256 269 276 277 282 285 286 298 298 286
47 54 63 78 86 92 97 100 102 104 107 109 111 111 108 109 113 112 111 107 107 109 108 100 95 88 336 311 294 285 266 253 252 249 265 276 282 281 285 290 295 302 299
56 62 69 79 85 89 95 97 99 101 103 104 105 107 107 112 111 108 106 105 104 105 109 111 104 70 9 305 296 295 292 291 288 282 280 279 283 283 284 287 285 286 289
65 70 76 85 89 90 93 96 98 101 102 103 104 105 106 110 109 107 106 104 106 111 116 123 145 268 288 284 261 263 264 273 282 282 264 269 272 275 272 284 292 293 285
65 70 77 86 91 92 94 96 99 100 99 99 101 102 102 106 109 111 111 111 109 112 124 155 230 267 296 304 295 272 274 275 291 295 296 298 301 304 305 303 300 302 300
62 69 74 82 89 92 94 94 94 96 96 93 89 88 96 103 116 119 121 113 113 120 134 273 302 302 303 307 297 279 284 282 283 295 303 303 298 296 301 292 276 286 293
67 73 75 80 85 89 89 88 91 92 91 88 85 77 73 82 93 105 119 120 131 143 188 258 277 305 310 313 320 312 298 309 314 310 303 299 297 291 289 278 261 260 276
72 76 75 75 80 84 86 85 85 91 91 89 88 79 59 53 69 73 75 78 91 148 253 260 272 306 321 327 328 316 317 328 332 309 302 300 301 300 299 291 280 265 258
78 75 75 74 71 74 82 85 80 80 89 88 88 87 70 49 43 54 47 29 8 356 272 306 319 330 338 336 324 325 335 333 309 305 301 297 292 286 293 295 291 281 275
85 78 76 77 73 65 65 75 84 88 93 94 94 92 76 46 18 357 342 328 322 319 316 332 344 345 343 333 331 329 317 301 303 299 300 299 300 296 295 297 302 309 306
86 82 78 77 81 74 69 74 87 89 122 119 120 124 112 44 307 334 346 289 292 293 10 39 355 342 338 330 321 312 307 310 308 301 299 302 303 303 301 302 294 299 293
100 89 84 84 80 80 80 70 77 87 86 92 108 118 196 321 337 353 348 346 347 345 12 358 336 328 322 318 316 314 310 302 298 298 296 294 296 299 301 301 294 295 295
111 108 98 96 96 95 93 94 77 58 65 62 50 38 30 13 4 356 350 354 354 0 12 324 309 303 299 295 293 293 294 292 292 289 287 288 291 293 295 298 300 298 296
109 114 112 105 104 101 98 96 96 83 39 10 12 14 12 5 0 355 355 6 355 350 307 293 290 290 290 289 289 290 292 295 292 288 286 286 286 289 292 294 295 295 298
116 113 111 109 104 100 97 90 77 67 53 12 350 350 358 354 355 354 1 358 306 300 292 284 280 281 283 282 282 283 283 287 286 286 286 284 285 287 289 290 293 296 299
124 132 126 115 103 93 84 79 66 46 18 351 331 317 318 329 330 324 319 291 284 283 283 283 283 279 280 280 280 282 285 284 285 284 284 285 286 285 287 291 293 296 296
123 127 122 107 100 99 93 81 51 351 318 308 299 302 313 307 296 293 292 284 275 278 278 282 282 281 277 277 276 277 280 283 282 282 284 285 287 288 289 289 290 291 293
125 120 118 121 120 130 128 107 334 303 299 298 297 304 318 316 290 285 284 283 278 273 270 276 279 276 272 273 276 279 281 282 282 281 282 284 286 288 290 290 291 294 297
128 128 123 121 120 159 122 17 292 287 287 287 289 292 296 290 287 284 284 285 287 285 283 277 275 279 276 273 270 268 272 276 278 280 283 286 286 288 290 292 294 298 300
136 141 147 151 158 177 216 260 273 278 282 283 283 285 284 284 287 288 286 286 287 282 282 278 273 274 278 284 282 276 272 273 275 274 271 274 282 288 292 294 296 298 302
145 151 160 174 190 210 238 258 268 275 282 287 288 290 291 290 288 286 285 285 286 285 285 285 281 280 281 282 284 285 285 287 289 288 284 284 287 291 295 297 300 303 303
154 161 170 181 199 218 238 256 266 273 279 284 285 285 286 287 287 287 288 287 288 290 289 290 284 284 286 289 289 289 293 297 299 300 299 294 295 296 299 301 303 304 303
Height
1429 1429 1429 1429 1430 1430 1431 1431 1433 1434 1436 1439 1442 1446 1450 1454 1459 1463 1467 1470 1474 1478 1482 1485 1488 1490 1492 1493 1494 1494 1495 1494 1492 1491 1490 1488 1485 1482 1478 1474 1470 1466 1463
1422 1422 1422 1422 1423 1424 1424 1425 1427 1429 1431 1434 1437 1441 1445 1449 1453 1457 1461 1465 1470 1474 1478 1481 1483 1485 1487 1488 1489 1489 1489 1488 1486 1483 1481 1480 1478 1475 1470 1466 1462 1459 1456
1416 1416 1416 1416 1417 1418 1419 1420 1422 1424 1427 1429 1433 1437 1441 1445 1448 1452 1457 1462 1466 1471 1474 1476 1478 1481 1482 1483 1483 1483 1483 1482 1480 1476 1473 1472 1470 1467 1462 1458 1455 1451 1448
1413 1412 1411 1411 1412 1413 1414 1416 1418 1421 1423 1426 1430 1434 1437 1441 1445 1450 1455 1460 1464 1467 1471 1473 1475 1476 1477 1478 1478 1477 1477 1476 1474 1470 1468 1465 1462 1459 1455 1450 1445 1443 1440
1410 1409 1409 1409 1409 1410 1411 1413 1415 1418 1421 1424 1427 1431 1435 1440 1445 1449 1454 1458 1462 1465 1468 1470 1471 1472 1472 1472 1473 1472 1471 1469 1467 1464 1462 1459 1455 1452 1449 1444 1439 1434 1431
1409 1408 1408 1407 1408 1408 1409 1411 1413 1416 1419 1423 1426 1431 1435 1440 1445 1450 1454 1457 1460 1463 1465 1466 1466 1467 1468 1468 1468 1467 1466 1464 1461 1458 1456 1453 1449 1446 1443 1438 1434 1428 1423
1410 1409 1408 1408 1408 1408 1409 1411 1414 1416 1420 1424 1428 1433 1437 1442 1446 1450 1454 1456 1458 1460 1461 1462 1462 1463 1464 1463 1462 1461 1460 1458 1456 1454 1450 1446 1443 1440 1437 1432 1429 1424 1419
1412 1411 1410 1410 1410 1411 1412 1414 1417 1420 1424 1428 1432 1436 1440 1444 1447 1450 1453 1455 1456 1457 1459 1459 1460 1460 1459 1457 1456 1454 1453 1451 1449 1446 1443 1440 1437 1434 1431 1428 1423 1417 1412
1415 1415 1415 1415 1415 1416 1417 1419 1422 1425 1428 1433 1436 1440 1442 1445 1448 1450 1451 1452 1454 1455 1456 1456 1456 1455 1454 1452 1451 1449 1446 1444 1443 1440 1437 1435 1432 1429 1426 1421 1416 1410 1404
1420 1420 1420 1420 1421 1422 1423 1425 1428 1431 1434 1437 1440 1442 1444 1446 1448 1449 1450 1451 1452 1453 1453 1453 1452 1450 1449 1447 1446 1443 1440 1438 1435 1432 1431 1429 1426 1423 1420 1416 1411 1405 1399
1426 1426 1426 1427 1427 1429 1430 1432 1435 1437 1439 1441 1443 1444 1446 1447 1448 1449 1450 1450 1450 1450 1450 1449 1447 1445 1444 1443 1441 1438 1435 1433 1429 1427 1424 1422 1419 1417 1414 1410 1406 1401 1395
1432 1432 1432 1433 1434 1436 1437 1439 1440 1442 1443 1444 1446 1446 1448 1448 1449 1449 1449 1449 1448 1447 1446 1444 1443 1441 1440 1438 1435 1432 1430 1427 1424 1422 1419 1416 1413 1410 1407 1404 1400 1396 1391
1438 1438 1439 1439 1440 1441 1442 1443 1444 1445 1446 1447 1448 1448 1449 1449 1449 1448 1447 1446 1445 1443 1442 1440 1439 1437 1435 1432 1430 1427 1425 1422 1420 1417 1414 1411 1408 1405 1401 1397 1393 1389 1383
1443 1443 1444 1444 1445 1445 1446 1447 1447 1448 1448 1449 1449 1449 1448 1448 1447 1446 1445 1443 1442 1440 1438 1437 1435 1433 1431 1428 1426 1424 1421 1419 1416 1413 1410 1407 1403 1400 1396 1392 1386 1380 1374
1447 1447 1448 1448 1448 1449 1449 1449 1449 1449 1449 1449 1448 1448 1447 1446 1445 1444 1442 1440 1439 1437 1435 1433 1431 1429 1427 1425 1423 1421 1419 1416 1413 1410 1407 1403 1399 1395 1391 1387 1381 1375 1369
1450 1450 1451 1451 1450 1450 1450 1450 1450 1450 1449 1448 1447 1446 1445 1444 1443 1441 1440 1438 1436 1434 1432 1430 1428 1426 1424 1421 1419 1417 1415 1413 1410 1407 1403 1399 1395 1390 1386 1382 1377 1371 1364
1452 1452 1452 1452 1452 1451 1451 1451 1450 1449 1448 1447 1446 1444 1443 1442 1440 1439 1437 1435 1433 1431 1430 1427 1425 1423 1421 1419 1417 1414 1412 1409 1406 1403 1399 1395 1391 1386 1382 1376 1371 1366 1359
1453 1453 1453 1453 1452 1452 1451 1451 1450 1448 1448 1446 1445 1443 1441 1440 1438 1436 1434 1433 1431 1429 1427 1425 1423 1421 1418 1416 1414 1411 1408 1405 1402 1399 1395 1391 1387 1382 1377 1372 1366 1360 1353
1453 1453 1453 1453 1452 1452 1451 1450 1449 1447 1446 1444 1443 1441 1439 1437 1435 1434 1432 1430 1428 1426 1424 1422 1420 1418 1415 1413 1410 1407 1404 1401 1398 1394 1390 1386 1382 1377 1372 1366 1361 1355 1349
1453 1453 1453 1453 1452 1451 1450 1449 1447 1445 1444 1442 1440 1438 1436 1434 1433 1431 1429 1427 1425 1423 1421 1419 1417 1415 1412 1409 1406 1403 1400 1397 1393 1389 1385 1381 1377 1372 1367 1361 1355 1349 1343
1452 1452 1452 1452 1451 1449 1448 1447 1445 1443 1441 1439 1437 1436 1434 1432 1430 1428 1426 1424 1422 1420 1418 1415 1413 1411 1408 1405 1402 1399 1395 1392 1388 1384 1380 1376 1371 1366 1361 1356 1350 1344 1337
1451 1451 1451 1450 1449 1447 1446 1444 1442 1441 1439 1437 1435 1433 1431 1429 1427 1425 1423 1421 1419 1416 1414 1411 1409 1407 1404 1401 1398 1394 1390 1387 1383 1379 1375 1370 1366 1361 1356 1350 1344 1339 1333
1449 1449 1449 1448 1446 1445 1443 1442 1440 1438 1436 1434 1432 1430 1428 1426 1423 1421 1419 1417 1415 1413 1410 1408 1405 1403 1400 1397 1394 1390 1386 1382 1378 1374 1369 1365 1360 1355 1350 1345 1339 1334 1328
1447 1447 1446 1445 1444 1442 1441 1439 1437 1435 1433 1431 1429 1427 1424 1422 1420 1418 1415 1413 1411 1409 1406 1404 1401 1398 1396 1392 1389 1385 1382 1378 1373 1369 1365 1360 1355 1351 1346 1340 1335 1329 1323
1445 1445 1444 1443 1441 1440 1438 1436 1434 1432 1430 1428 1426 1423 1421 1419 1417 1414 1412 1410 1407 1405 1403 1400 1397 1394 1391 1388 1384 1380 1377 1373 1369 1365 1361 1356 1351 1347 1341 1336 1330 1324 1318
1442 1442 1441 1440 1439 1437 1435 1433 1431 1429 1427 1425 1423 1420 1418 1416 1413 1411 1409 1406 1404 1401 1399 1396 1393 1390 1386 1383 1379 1376 1372 1368 1364 1361 1357 1352 1347 1342 1336 1331 1325 1318 1312